Date,TemperatureHighF,TemperatureAvgF,TemperatureLowF,DewpointHighF,DewpointAvgF,DewpointLowF,HumidityHigh,HumidityAvg,HumidityLow,PressureMaxIn,PressureMinIn,WindSpeedMaxMPH,WindSpeedAvgMPH,GustSpeedMaxMPH,PrecipitationSumIn
2013-7-1,81.0,75.3,65.7,57.9,52.2,46.9,57,45,34,30.17,30.12,6,2,8,0.00
2013-7-2,85.3,77.5,68.5,58.1,53.8,44.4,59,45,31,30.15,30.09,4,1,9,0.00
2013-7-3,82.9,76.8,68.4,59.4,52.4,44.2,71,45,27,30.12,30.03,4,2,8,0.00
2013-7-4,81.9,72.5,64.6,63.5,59.4,53.2,87,65,42,30.12,30.00,4,2,10,0.45
2013-7-5,88.3,80.8,66.7,64.6,58.0,51.8,83,47,31,30.15,30.09,5,2,9,0.00
2013-7-6,89.4,81.0,73.8,61.9,55.8,44.6,61,44,22,30.17,30.09,8,3,12,0.00
2013-7-7,87.4,76.3,69.8,64.0,60.7,57.4,78,60,37,30.17,30.09,9,2,12,0.05
2013-7-8,88.7,76.3,68.2,64.6,61.2,57.4,82,62,39,30.17,30.06,9,2,12,1.53
2013-7-9,84.9,76.0,66.7,65.7,61.9,58.5,80,63,42,30.09,29.97,4,1,8,0.00
2013-7-10,85.1,76.9,68.5,67.6,63.9,58.3,84,65,44,30.00,29.88,6,2,13,0.00
2013-7-11,84.6,76.8,70.3,70.3,64.3,57.2,80,66,51,29.97,29.88,8,2,13,0.00
2013-7-12,86.5,79.4,70.9,67.1,62.7,58.3,77,58,42,30.06,29.94,5,2,9,0.00
2013-7-13,85.8,80.5,71.8,67.3,63.5,59.0,75,57,48,30.06,30.00,6,2,8,0.00
2013-7-14,86.4,80.3,71.2,68.5,64.0,60.1,75,58,43,30.03,29.97,6,2,10,0.00
2013-7-15,84.6,77.9,71.1,69.4,64.4,58.6,75,64,46,30.06,30.00,5,1,15,0.16
2013-7-16,87.6,82.1,72.5,63.9,60.4,56.5,64,49,36,30.12,30.03,6,2,10,0.00
2013-7-17,89.2,81.4,74.7,68.9,64.4,55.6,73,57,42,30.09,30.03,6,2,12,0.00
2013-7-18,84.6,79.5,73.0,69.4,66.8,60.6,88,66,56,30.09,30.03,10,2,19,0.00
2013-7-19,82.9,75.2,70.7,69.4,64.4,60.8,88,70,53,30.09,30.00,6,2,8,0.00
2013-7-20,87.1,79.7,70.3,65.3,63.1,59.5,78,58,41,30.03,29.94,5,1,9,0.00
2013-7-21,87.4,76.0,68.5,68.9,63.4,57.6,85,66,45,30.03,29.97,7,2,15,0.59
2013-7-22,83.1,77.0,69.3,66.9,63.3,56.8,80,63,51,30.00,29.94,4,1,6,0.00
2013-7-23,91.2,83.4,72.5,66.7,59.6,38.1,80,48,16,30.00,29.91,4,2,8,0.00
2013-7-24,91.4,83.2,75.0,67.3,62.9,54.9,76,52,31,30.06,29.97,6,2,11,0.00
2013-7-25,88.9,82.5,75.0,70.0,67.2,58.1,79,61,48,30.06,30.00,5,2,10,0.00
2013-7-26,91.4,84.9,77.5,71.6,65.9,58.1,69,54,43,30.06,29.97,5,1,8,0.00
2013-7-27,95.5,88.0,77.9,69.3,63.7,47.8,62,45,30,30.00,29.94,6,2,9,0.00
2013-7-28,94.5,86.0,76.1,66.2,61.5,52.9,56,44,34,30.09,29.97,6,2,9,0.00
2013-7-29,91.4,85.8,76.6,72.3,62.1,53.2,85,47,31,30.09,30.00,8,3,14,0.00
2013-7-30,89.2,82.5,75.2,71.1,59.4,45.0,84,49,22,30.03,29.94,8,3,16,0.00
2013-7-31,90.7,83.3,75.9,64.2,60.0,48.7,64,47,25,30.00,29.91,6,2,9,0.00